Location: Hokitika
(42.7170°S, 170.9670°E)
Time: 12:28:30
(UTC+12:00)

Daily predictions for brighter satellites

Satellite Brightness Start Highest point End
(mag) Time Altitude Azimuth Time Altitude Azimuth Time Altitude Azimuth
Atlas Centaur 2 4.1 17:46:13 10° NW 17:49:48 20° N 17:53:59 10° NE
In-Cosmos 22 Rocket 4.4 17:45:12 10° NNW 17:50:33 76° W 17:55:58 10° S
CZ-4B R/B 1.8 17:48:19 10° NE 17:51:08 33° ESE 17:54:02 10° S
Meteor PRIRODA 4.0 17:51:37 10° SSE 17:55:18 46° E 17:58:54 10° N
IRIDIUM 114 4.4 17:53:00 10° S 17:58:15 57° E 18:03:25 10° NNE
Cosmos 1437 Rocket 3.6 17:55:11 10° SSE 17:58:31 27° ESE 18:01:49 10° NE
ERS-2 4.0 18:01:06 10° E 18:02:45 13° ESE 18:04:25 10° SE
Cosmos 1242 Rocket 4.2 18:01:26 10° SSE 18:03:43 15° ESE 18:05:59 10° ENE
Genesis I 3.4 17:59:54 10° NW 18:03:52 77° SW 18:07:49 10° SSE
Cosmos 1356 3.4 18:00:33 10° N 18:03:57 64° E 18:07:25 10° SSE
deb Chang Zheng 4 4.2 18:01:33 10° SSE 18:05:39 36° E 18:09:41 10° NNE
Meteor 2-15 4.4 18:00:00 10° S 18:06:09 67° E 18:12:11 10° NNE
ATLAS 3B R/B 3.0 17:59:25 10° NNW 18:06:58 86° ENE 18:14:23 10° SE
Cosmos 2333 Rocket 3.5 18:01:58 10° NW 18:07:14 38° WSW 18:12:33 10° S
IRIDIUM 103 4.3 18:02:05 10° S 18:07:24 70° E 18:12:38 10° N
Envisat 3.0 18:02:28 10° SSE 18:07:39 74° ENE 18:12:44 10° N
Cosmos 2058 2.9 18:04:09 10° N 18:08:19 83° E 18:12:32 10° S
SKYMED 2 4.4 18:06:54 10° N 18:11:12 57° W 18:15:34 10° SSW
H-2A R/B 3.0 18:08:57 10° S 18:12:51 71° WSW 18:16:38 10° NNW
SJ 16-02 2.4 18:09:22 10° S 18:13:00 24° ESE 18:16:36 10° ENE
Cosmos 2237 Rocket 2.2 18:07:47 10° NNW 18:13:25 68° ENE 18:19:08 10° SSE
SMAP 4.0 18:09:57 10° SE 18:14:02 28° E 18:18:02 10° NNE
Cosmos 1943 Rocket 3.5 18:15:01 10° S 18:19:03 19° SE 18:21:53 14° E
NOAA 6 4.4 18:15:32 10° SSE 18:20:26 41° E 18:25:18 10° N
H-2A R/B 4.4 18:21:40 11° ENE 18:21:40 11° ENE 18:22:02 10° ENE
Cosmos 1553 Rocket 4.2 18:16:00 10° S 18:21:52 44° ESE 18:27:39 10° NNE
Cosmos 1689 Rocket 3.1 18:21:30 10° NE 18:23:53 23° ESE 18:26:18 10° SSE
SL-8 R/B 3.9 18:20:35 10° WNW 18:25:27 67° SSW 18:29:12 17° ESE
IRIDIUM 106 4.5 18:20:25 10° S 18:25:44 81° W 18:30:59 10° N
CSL-04 DEB 4.3 18:22:36 10° NNE 18:26:33 82° ESE 18:30:35 10° SSW
NOSS 0 Rocket 4.2 18:22:02 10° NNW 18:28:17 74° WSW 18:34:33 10° SSE
Okean O Rocket 2.8 18:34:14 20° ESE 18:35:26 22° E 18:38:57 10° NE
PSLV R/B 3.8 18:32:55 10° SSE 18:36:41 53° E 18:40:20 10° N
Lacrosse 5 2.0 18:33:14 10° SW 18:38:20 57° SE 18:42:25 15° ENE
Cosmos 2278 Rocket 2.6 18:33:00 10° SSW 18:38:44 69° WNW 18:44:22 10° NNE
Cosmos 2369 Rocket 3.7 18:38:25 10° S 18:41:48 16° SE 18:41:48 16° SE
Cosmos 1777 Rocket 4.1 18:37:21 10° SSW 18:42:42 84° WNW 18:47:57 10° NNE
Cosmos 1933 3.9 18:41:51 10° S 18:45:43 35° ESE 18:49:32 10° NE
Cosmos 2219 Rocket 4.2 18:42:22 10° WNW 18:46:47 23° SW 18:51:14 10° S
CZ-4B R/B 3.6 18:44:38 12° SSE 18:49:12 37° E 18:54:04 10° NNE
CZ-2C R/B 3.1 18:46:02 10° N 18:51:39 70° WNW 18:57:17 10° SSW
NOAA 11 4.1 18:51:01 10° SSE 18:56:34 83° ENE 19:02:04 10° NNW
Cosmos 1898 Rocket 4.3 18:56:35 10° S 19:00:48 29° SE 19:00:48 29° SE
Meteor 2-3 Rocket 3.7 18:56:48 10° N 19:02:19 59° E 19:07:57 10° SSE
Cosmos 1655 Rocket 4.0 18:56:57 10° N 19:03:08 60° E 19:09:28 10° SSE
Cosmos 1766 Rocket 4.3 19:01:03 10° NNE 19:04:23 34° ENE 19:04:23 34° ENE
PAYLOAD B 4.1 18:59:30 10° SSE 19:05:11 74° ENE 19:10:44 10° N
Cosmos 1461 3.3 19:01:01 10° SW 19:05:21 68° WNW 19:09:51 10° NNE
ATLAS CENTAUR R/B 1.7 19:14:57 10° SSW 19:18:33 47° SSE 19:18:33 47° SSE
Cosmos 1633 3.9 19:16:32 10° NNW 19:19:54 38° WSW 19:23:21 10° S
Cosmos 1939 Rocket 2.9 19:17:52 27° SSE 19:20:07 89° WSW 19:24:18 10° NNW
Cosmos 883 Rocket 4.4 19:19:16 10° S 19:25:29 60° E 19:31:40 10° NNE
Lacrosse 5 rocket 3.9 19:23:27 10° NNE 19:24:00 12° NNE 19:24:00 12° NNE
CZ-2C R/B 2.7 19:25:08 30° SSE 19:27:31 81° ENE 19:32:19 10° N
USA 234 3.5 19:24:15 27° SE 19:28:02 66° SW 19:34:32 10° WNW
SL-16 R/B 2.2 19:23:19 10° NNW 19:29:00 85° WSW 19:32:00 30° SSE
Cosmos 2151 4.0 19:25:31 10° NNW 19:29:35 45° WSW 19:33:44 10° S
Radarsat Rocket 4.0 19:24:18 10° SSE 19:30:26 79° WSW 19:36:16 10° NNW
ERS-2 3.0 19:32:14 10° N 19:35:49 49° W 19:39:28 10° SSW
Cosmos 1242 Rocket 4.2 19:35:15 10° SSW 19:38:41 35° W 19:42:03 10° NNW
Cosmos 2266 Rocket 3.9 19:35:29 10° N 19:41:34 83° W 19:47:49 10° S
Cosmos 2297 3.7 19:38:11 10° SSW 19:44:00 82° WNW 19:46:44 33° NNE
SJ 16-02 3.0 19:47:36 10° SW 19:51:38 34° W 19:55:39 10° NNW
H-2A R/B 4.1 19:58:12 26° NW 19:58:12 26° NW 20:00:06 10° NNW
Cosmos 2237 Rocket 4.4 19:53:46 10° W 19:58:02 21° SW 20:02:21 10° S
ATLAS 3B R/B 4.4 19:52:17 10° W 19:58:34 28° SW 20:03:08 16° SSE
Cosmos 1943 Rocket 2.2 19:57:44 10° SSW 20:03:27 76° WNW 20:03:29 76° WNW
Cosmos 1607 4.1 19:59:54 10° SW 20:06:01 67° WNW 20:07:09 56° N
Cosmos 1867 4.1 20:02:01 10° SW 20:07:18 54° WNW 20:07:40 53° NW
Cosmos 1763 Rocket 4.0 20:03:24 10° NNW 20:08:35 60° WSW 20:08:35 60° WSW
Cosmos 2315 Rocket 4.1 20:04:47 10° S 20:11:09 75° W 20:17:29 10° N
Okean O Rocket 3.0 20:11:42 36° WSW 20:11:52 36° WSW 20:15:59 10° NW
Lacrosse 5 3.6 20:16:44 10° WSW 20:21:01 27° WNW 20:21:42 26° NW
Cosmos 2369 Rocket 3.7 20:21:04 10° SSW 20:23:38 28° SSW 20:23:38 28° SSW
NOSS 3-1 (C) 4.2 20:34:48 10° NW 20:42:38 71° NW 20:42:38 71° NW
